| time (UTC) | temp F | wind direction | speed MPH | gust MPH | rain 1hr in | rain 24hr in | rain mn in | humidity % | barometer mb |
| 20260504141154 | 71 | 18 | 1.0 | 2.0 | 0.00 | 0.00 | 0.00 | 74 | 1023.0 |
| 20260504140651 | 70 | 335 | 1.0 | 2.0 | 0.00 | 0.00 | 0.00 | 75 | 1023.2 |
| 20260504140146 | 70 | 358 | 1.0 | 1.0 | 0.00 | 0.00 | 0.00 | 75 | 1023.3 |
| 20260504130615 | 66 | 354 | 1.0 | 2.0 | 0.00 | 0.00 | 0.00 | 81 | 1023.8 |
| 20260504130112 | 66 | 44 | 5.0 | 9.0 | 0.00 | 0.00 | 0.00 | 82 | 1023.7 |
| 20260504110456 | 62 | 236 | 5.0 | 7.0 | 0.00 | 0.00 | 0.00 | 89 | 1022.8 |
| 20260504100413 | 60 | 87 | 4.0 | 6.0 | 0.00 | 0.00 | 0.00 | 91 | 1022.6 |
| 20260504081800 | 59 | 116 | 8.0 | 10.0 | 0.00 | 0.00 | 0.00 | 92 | 1021.4 |
| 20260504081256 | 59 | 57 | 5.0 | 7.0 | 0.00 | 0.00 | 0.00 | 93 | 1021.4 |
| 20260504080753 | 59 | 23 | 1.0 | 2.0 | 0.00 | 0.00 | 0.00 | 93 | 1021.1 |
| 20260504080249 | 59 | 87 | 3.0 | 5.0 | 0.00 | 0.00 | 0.00 | 93 | 1021.0 |
| 20260504070217 | 60 | 87 | 9.0 | 10.0 | 0.00 | 0.00 | 0.00 | 92 | 1022.2 |
| 20260504060138 | 60 | 23 | 1.0 | 2.0 | 0.00 | 0.00 | 0.00 | 90 | 1022.3 |
| 20260504050606 | 60 | 140 | 4.0 | 5.0 | 0.00 | 0.00 | 0.00 | 90 | 1022.7 |
| 20260504045600 | 60 | 81 | 14.0 | 17.0 | 0.00 | 0.00 | 0.00 | 89 | 1022.3 |
| 20260504045054 | 60 | 94 | 11.0 | 13.0 | 0.00 | 0.00 | 0.00 | 89 | 1022.7 |
| 20260504044552 | 60 | 53 | 6.0 | 11.0 | 0.00 | 0.00 | 0.00 | 89 | 1022.8 |
| 20260504044049 | 60 | 84 | 5.0 | 6.0 | 0.00 | 0.00 | 0.00 | 89 | 1022.7 |
| 20260504043547 | 60 | 91 | 9.0 | 10.0 | 0.00 | 0.00 | 0.00 | 90 | 1022.9 |
| 20260504043044 | 60 | 101 | 9.0 | 11.0 | 0.00 | 0.00 | 0.00 | 90 | 1022.4 |
| 20260504042541 | 60 | 116 | 11.0 | 13.0 | 0.00 | 0.00 | 0.00 | 90 | 1023.0 |
| 20260504042038 | 60 | 80 | 6.0 | 8.0 | 0.00 | 0.00 | 0.00 | 90 | 1022.8 |
| 20260504041533 | 60 | 88 | 8.0 | 9.0 | 0.00 | 0.00 | 0.00 | 90 | 1022.9 |
| 20260504041029 | 60 | 90 | 4.0 | 6.0 | 0.00 | 0.00 | 0.00 | 90 | 1023.0 |
| 20260504040527 | 60 | 23 | 6.0 | 9.0 | 0.00 | 0.00 | 0.00 | 90 | 1023.2 |
| 20260504040024 | 60 | 36 | 2.0 | 2.0 | 0.00 | 0.00 | 0.00 | 91 | 1023.4 |
| 20260504035521 | 60 | 122 | 3.0 | 7.0 | 0.00 | 0.00 | 0.00 | 91 | 1023.0 |
| 20260504035017 | 59 | 71 | 7.0 | 10.0 | 0.00 | 0.00 | 0.00 | 91 | 1023.2 |
| 20260504034515 | 59 | 25 | 5.0 | 7.0 | 0.00 | 0.00 | 0.00 | 92 | 1023.5 |
| 20260504034012 | 59 | 74 | 6.0 | 8.0 | 0.00 | 0.00 | 0.00 | 92 | 1023.3 |
| 20260504033510 | 59 | 102 | 6.0 | 8.0 | 0.00 | 0.00 | 0.00 | 92 | 1023.4 |
| 20260504033007 | 59 | 88 | 11.0 | 13.0 | 0.00 | 0.00 | 0.00 | 93 | 1023.5 |
| 20260504032503 | 59 | 83 | 4.0 | 6.0 | 0.00 | 0.00 | 0.00 | 93 | 1023.6 |
| 20260504032000 | 59 | 95 | 9.0 | 11.0 | 0.00 | 0.00 | 0.00 | 92 | 1023.7 |
| 20260504031456 | 59 | 74 | 6.0 | 8.0 | 0.00 | 0.00 | 0.00 | 92 | 1023.6 |
| 20260504030954 | 59 | 95 | 6.0 | 9.0 | 0.00 | 0.00 | 0.00 | 92 | 1023.6 |
| 20260504030451 | 59 | 101 | 3.0 | 5.0 | 0.00 | 0.00 | 0.00 | 91 | 1023.8 |
| 20260504025946 | 59 | 22 | 3.0 | 5.0 | 0.00 | 0.01 | 0.01 | 91 | 1023.8 |
| 20260504025444 | 59 | 196 | 4.0 | 5.0 | 0.00 | 0.01 | 0.01 | 91 | 1023.7 |
| 20260504024941 | 59 | 158 | 4.0 | 6.0 | 0.00 | 0.01 | 0.01 | 91 | 1023.7 |
| 20260504024438 | 59 | 76 | 4.0 | 5.0 | 0.00 | 0.01 | 0.01 | 90 | 1023.8 |
| 20260504023934 | 59 | 6 | 3.0 | 3.0 | 0.00 | 0.01 | 0.01 | 90 | 1023.8 |
| 20260504023431 | 59 | 93 | 9.0 | 11.0 | 0.00 | 0.01 | 0.01 | 90 | 1023.8 |
| 20260504022927 | 59 | 353 | 3.0 | 3.0 | 0.00 | 0.01 | 0.01 | 90 | 1023.6 |
| 20260504022423 | 59 | 343 | 2.0 | 2.0 | 0.00 | 0.01 | 0.01 | 90 | 1023.8 |
| 20260504021920 | 59 | 101 | 2.0 | 3.0 | 0.00 | 0.01 | 0.01 | 91 | 1023.9 |
| 20260504021417 | 59 | 99 | 7.0 | 9.0 | 0.00 | 0.01 | 0.01 | 91 | 1023.8 |
| 20260504020914 | 59 | 56 | 2.0 | 5.0 | 0.00 | 0.01 | 0.01 | 91 | 1023.6 |
| 20260504020411 | 59 | 91 | 8.0 | 10.0 | 0.00 | 0.01 | 0.01 | 91 | 1023.9 |
| 20260504015908 | 59 | 92 | 6.0 | 9.0 | 0.00 | 0.01 | 0.01 | 91 | 1024.0 |
| 20260504015403 | 59 | 203 | 3.0 | 5.0 | 0.00 | 0.01 | 0.01 | 91 | 1023.9 |
| 20260504014900 | 59 | 2 | 3.0 | 3.0 | 0.00 | 0.01 | 0.01 | 91 | 1023.9 |
| 20260504014355 | 59 | 148 | 7.0 | 8.0 | 0.00 | 0.01 | 0.01 | 91 | 1024.1 |
| 20260504013853 | 59 | 220 | 3.0 | 3.0 | 0.00 | 0.01 | 0.01 | 91 | 1024.0 |
| 20260504013351 | 59 | 99 | 7.0 | 8.0 | 0.00 | 0.01 | 0.01 | 91 | 1024.0 |
| 20260504012847 | 59 | 139 | 3.0 | 7.0 | 0.00 | 0.01 | 0.01 | 91 | 1024.0 |
| 20260504012345 | 59 | 206 | 3.0 | 6.0 | 0.00 | 0.01 | 0.01 | 91 | 1024.1 |
| 20260504011842 | 59 | 153 | 6.0 | 7.0 | 0.00 | 0.01 | 0.01 | 91 | 1024.1 |
| 20260504011339 | 59 | 118 | 5.0 | 7.0 | 0.00 | 0.01 | 0.01 | 91 | 1024.0 |
| 20260504010835 | 59 | 303 | 2.0 | 3.0 | 0.00 | 0.01 | 0.01 | 91 | 1024.3 |
| 20260504010330 | 59 | 140 | 3.0 | 5.0 | 0.00 | 0.01 | 0.01 | 91 | 1024.2 |
| 20260504005827 | 59 | 134 | 3.0 | 3.0 | 0.00 | 0.01 | 0.01 | 91 | 1024.0 |
| 20260504005324 | 59 | 144 | 6.0 | 7.0 | 0.00 | 0.01 | 0.01 | 91 | 1024.5 |
| 20260504004822 | 59 | 120 | 3.0 | 5.0 | 0.00 | 0.01 | 0.01 | 91 | 1024.5 |
| 20260504004319 | 59 | 142 | 6.0 | 8.0 | 0.00 | 0.01 | 0.01 | 91 | 1024.1 |
| 20260504003815 | 59 | 238 | 6.0 | 8.0 | 0.00 | 0.01 | 0.01 | 92 | 1024.5 |
| 20260504003313 | 59 | 124 | 5.0 | 6.0 | 0.00 | 0.01 | 0.01 | 92 | 1024.3 |
| 20260504002809 | 59 | 40 | 2.0 | 3.0 | 0.00 | 0.01 | 0.01 | 93 | 1024.2 |
| 20260504002306 | 58 | 213 | 5.0 | 7.0 | 0.00 | 0.01 | 0.01 | 93 | 1024.3 |
| 20260504001804 | 58 | 85 | 4.0 | 6.0 | 0.00 | 0.01 | 0.01 | 94 | 1024.1 |
| 20260504001301 | 58 | 221 | 6.0 | 9.0 | 0.00 | 0.01 | 0.01 | 95 | 1024.3 |
| 20260504000757 | 58 | 143 | 3.0 | 15.0 | 0.00 | 0.01 | 0.01 | 97 | 1024.2 |
| 20260504000254 | 58 | 87 | 4.0 | 7.0 | 0.00 | 0.01 | 0.01 | 98 | 1024.3 |
| 20260503235752 | 58 | 116 | 4.0 | 6.0 | 0.00 | 0.01 | 0.01 | 98 | 1024.3 |
| 20260503235249 | 58 | 110 | 7.0 | 9.0 | 0.00 | 0.01 | 0.01 | 98 | 1024.5 |
| 20260503234747 | 58 | 209 | 7.0 | 13.0 | 0.00 | 0.01 | 0.01 | 98 | 1024.1 |
| 20260503234245 | 58 | 123 | 4.0 | 6.0 | 0.00 | 0.01 | 0.01 | 98 | 1024.7 |
| 20260503233742 | 58 | 272 | 6.0 | 8.0 | 0.00 | 0.01 | 0.01 | 98 | 1024.2 |
| 20260503233238 | 58 | 206 | 5.0 | 8.0 | 0.00 | 0.01 | 0.01 | 97 | 1024.3 |
| 20260503232735 | 58 | 188 | 2.0 | 3.0 | 0.00 | 0.01 | 0.01 | 97 | 1024.5 |
| 20260503232232 | 58 | 175 | 3.0 | 6.0 | 0.00 | 0.01 | 0.01 | 97 | 1024.2 |
| 20260503231730 | 58 | 318 | 3.0 | 5.0 | 0.00 | 0.01 | 0.01 | 97 | 1024.5 |
| 20260503231226 | 58 | 78 | 4.0 | 7.0 | 0.00 | 0.01 | 0.01 | 98 | 1024.5 |
| 20260503230722 | 58 | 150 | 5.0 | 7.0 | 0.00 | 0.01 | 0.01 | 98 | 1024.2 |
| 20260503230220 | 58 | 119 | 9.0 | 13.0 | 0.00 | 0.01 | 0.01 | 97 | 1024.1 |
| 20260503225717 | 58 | 77 | 3.0 | 5.0 | 0.00 | 0.01 | 0.01 | 98 | 1024.2 |
| 20260503225217 | 58 | 162 | 5.0 | 8.0 | 0.00 | 0.01 | 0.01 | 98 | 1024.0 |
| 20260503224715 | 58 | 122 | 9.0 | 13.0 | 0.00 | 0.01 | 0.01 | 98 | 1024.2 |
| 20260503224213 | 58 | 218 | 2.0 | 3.0 | 0.00 | 0.01 | 0.01 | 98 | 1024.0 |
| 20260503223710 | 59 | 167 | 7.0 | 9.0 | 0.00 | 0.01 | 0.01 | 98 | 1024.1 |
| 20260503223207 | 59 | 184 | 5.0 | 7.0 | 0.00 | 0.01 | 0.01 | 98 | 1024.1 |
| 20260503222704 | 59 | 63 | 2.0 | 2.0 | 0.00 | 0.01 | 0.01 | 98 | 1023.9 |
| 20260503222201 | 59 | 117 | 4.0 | 6.0 | 0.00 | 0.01 | 0.01 | 97 | 1023.8 |
| 20260503221700 | 59 | 331 | 6.0 | 10.0 | 0.00 | 0.01 | 0.01 | 96 | 1023.7 |
| 20260503221157 | 59 | 107 | 3.0 | 6.0 | 0.00 | 0.01 | 0.01 | 96 | 1023.5 |
| 20260503220653 | 59 | 180 | 5.0 | 7.0 | 0.00 | 0.01 | 0.01 | 95 | 1023.6 |
| 20260503220150 | 59 | 71 | 5.0 | 8.0 | 0.00 | 0.01 | 0.01 | 95 | 1023.6 |
| 20260503215647 | 59 | 91 | 7.0 | 9.0 | 0.00 | 0.01 | 0.01 | 96 | 1023.6 |
| 20260503215143 | 59 | 279 | 3.0 | 3.0 | 0.00 | 0.01 | 0.01 | 96 | 1023.7 |
| 20260503214642 | 58 | 164 | 8.0 | 10.0 | 0.00 | 0.01 | 0.01 | 97 | 1023.7 |
| 20260503214138 | 58 | 32 | 3.0 | 5.0 | 0.00 | 0.01 | 0.01 | 97 | 1023.4 |
| 20260503213632 | 58 | 13 | 3.0 | 6.0 | 0.00 | 0.01 | 0.01 | 98 | 1023.7 |
| 20260503213128 | 58 | 137 | 2.0 | 2.0 | 0.00 | 0.01 | 0.01 | 98 | 1023.4 |
| 20260503212625 | 58 | 83 | 1.0 | 2.0 | 0.00 | 0.01 | 0.01 | 98 | 1023.4 |
| 20260503212123 | 58 | 17 | 2.0 | 3.0 | 0.00 | 0.01 | 0.01 | 98 | 1023.6 |
| 20260503211620 | 58 | 345 | 2.0 | 3.0 | 0.00 | 0.01 | 0.01 | 98 | 1023.3 |
| 20260503211115 | 58 | 111 | 2.0 | 2.0 | 0.00 | 0.01 | 0.01 | 98 | 1023.2 |
| 20260503210613 | 59 | 80 | 3.0 | 3.0 | 0.00 | 0.01 | 0.01 | 98 | 1023.3 |
| 20260503210109 | 58 | 104 | 3.0 | 5.0 | 0.00 | 0.01 | 0.01 | 98 | 1023.4 |
| 20260503205605 | 59 | 105 | 7.0 | 10.0 | 0.00 | 0.01 | 0.01 | 97 | 1023.5 |
| 20260503205101 | 59 | 86 | 2.0 | 2.0 | 0.00 | 0.01 | 0.01 | 97 | 1023.5 |
| 20260503204558 | 59 | 88 | 5.0 | 7.0 | 0.00 | 0.01 | 0.01 | 96 | 1023.3 |
| 20260503204055 | 59 | 0 | 3.0 | 6.0 | 0.00 | 0.01 | 0.01 | 96 | 1023.5 |
| 20260503203552 | 59 | 51 | 4.0 | 6.0 | 0.00 | 0.01 | 0.01 | 96 | 1023.3 |
| 20260503203049 | 59 | 71 | 2.0 | 3.0 | 0.00 | 0.01 | 0.01 | 96 | 1023.3 |
| 20260503202547 | 59 | 164 | 6.0 | 7.0 | 0.00 | 0.01 | 0.01 | 96 | 1023.4 |
| 20260503202045 | 59 | 233 | 3.0 | 3.0 | 0.00 | 0.01 | 0.01 | 95 | 1023.3 |
| 20260503201543 | 59 | 225 | 3.0 | 3.0 | 0.00 | 0.01 | 0.01 | 95 | 1023.3 |
| 20260503201040 | 59 | 3 | 4.0 | 7.0 | 0.00 | 0.01 | 0.01 | 95 | 1023.3 |
| 20260503200536 | 59 | 119 | 5.0 | 7.0 | 0.00 | 0.01 | 0.01 | 95 | 1023.0 |
| 20260503200033 | 59 | 107 | 7.0 | 10.0 | 0.00 | 0.01 | 0.01 | 95 | 1023.3 |
| 20260503195530 | 59 | 83 | 3.0 | 3.0 | 0.00 | 0.01 | 0.01 | 95 | 1023.5 |
| 20260503195027 | 59 | 165 | 2.0 | 5.0 | 0.00 | 0.01 | 0.01 | 96 | 1023.3 |
| 20260503194525 | 59 | 124 | 4.0 | 6.0 | 0.00 | 0.01 | 0.01 | 96 | 1023.2 |
| 20260503194024 | 59 | 98 | 7.0 | 9.0 | 0.00 | 0.01 | 0.01 | 97 | 1023.3 |
| 20260503193521 | 59 | 196 | 3.0 | 5.0 | 0.00 | 0.01 | 0.01 | 98 | 1023.4 |
| 20260503193016 | 59 | 93 | 2.0 | 2.0 | 0.00 | 0.01 | 0.01 | 98 | 1023.2 |
| 20260503192512 | 59 | 148 | 6.0 | 8.0 | 0.00 | 0.01 | 0.01 | 98 | 1023.0 |
| 20260503192008 | 58 | 69 | 3.0 | 3.0 | 0.00 | 0.01 | 0.01 | 98 | 1023.0 |
| 20260503191505 | 58 | 110 | 6.0 | 8.0 | 0.00 | 0.01 | 0.01 | 98 | 1023.2 |
| 20260503191002 | 58 | 186 | 16.0 | 18.0 | 0.00 | 0.01 | 0.01 | 97 | 1022.8 |
| 20260503190459 | 59 | 158 | 17.0 | 20.0 | 0.00 | 0.01 | 0.01 | 96 | 1022.8 |
| 20260503185956 | 59 | 180 | 6.0 | 8.0 | 0.00 | 0.01 | 0.01 | 97 | 1022.9 |
| 20260503185452 | 59 | 111 | 11.0 | 16.0 | 0.00 | 0.01 | 0.01 | 96 | 1022.8 |
| 20260503184952 | 60 | 144 | 11.0 | 15.0 | 0.00 | 0.01 | 0.01 | 94 | 1023.0 |
| 20260503184448 | 60 | 137 | 6.0 | 8.0 | 0.00 | 0.01 | 0.01 | 94 | 1022.7 |
| 20260503183945 | 60 | 152 | 7.0 | 11.0 | 0.00 | 0.01 | 0.01 | 93 | 1022.7 |
| 20260503183441 | 61 | 176 | 8.0 | 10.0 | 0.00 | 0.01 | 0.01 | 91 | 1022.7 |
| 20260503182938 | 61 | 149 | 5.0 | 11.0 | 0.00 | 0.01 | 0.01 | 89 | 1023.0 |
| 20260503182437 | 61 | 315 | 3.0 | 3.0 | 0.00 | 0.01 | 0.01 | 89 | 1022.6 |
| 20260503181934 | 61 | 301 | 3.0 | 5.0 | 0.00 | 0.01 | 0.01 | 89 | 1022.8 |
| 20260503181431 | 61 | 57 | 9.0 | 13.0 | 0.00 | 0.01 | 0.01 | 89 | 1022.8 |
| 20260503180927 | 61 | 64 | 3.0 | 3.0 | 0.00 | 0.01 | 0.01 | 89 | 1022.9 |
| 20260503180427 | 61 | 96 | 5.0 | 8.0 | 0.00 | 0.01 | 0.01 | 89 | 1022.8 |
| 20260503175922 | 61 | 156 | 5.0 | 7.0 | 0.00 | 0.01 | 0.01 | 89 | 1022.8 |
| 20260503175421 | 61 | 91 | 4.0 | 5.0 | 0.00 | 0.01 | 0.01 | 90 | 1023.0 |
| 20260503174916 | 61 | 238 | 6.0 | 8.0 | 0.00 | 0.01 | 0.01 | 90 | 1023.0 |
| 20260503174414 | 60 | 110 | 7.0 | 10.0 | 0.00 | 0.01 | 0.01 | 91 | 1022.9 |
| 20260503173909 | 60 | 187 | 8.0 | 13.0 | 0.00 | 0.01 | 0.01 | 93 | 1023.0 |
| 20260503173405 | 60 | 160 | 9.0 | 10.0 | 0.00 | 0.01 | 0.01 | 93 | 1022.9 |
| 20260503172902 | 61 | 352 | 5.0 | 10.0 | 0.00 | 0.01 | 0.01 | 93 | 1022.8 |
| 20260503172400 | 61 | 174 | 6.0 | 9.0 | 0.00 | 0.01 | 0.01 | 91 | 1023.4 |
| 20260503171855 | 61 | 216 | 4.0 | 6.0 | 0.00 | 0.01 | 0.01 | 91 | 1023.0 |
| 20260503171352 | 61 | 140 | 9.0 | 11.0 | 0.00 | 0.01 | 0.01 | 90 | 1023.0 |
| 20260503170850 | 62 | 124 | 5.0 | 7.0 | 0.00 | 0.01 | 0.01 | 89 | 1023.0 |
| 20260503170346 | 62 | 30 | 3.0 | 6.0 | 0.00 | 0.01 | 0.01 | 89 | 1023.0 |
| 20260503150738 | 62 | 186 | 8.0 | 15.0 | 0.00 | 0.01 | 0.01 | 90 | 1024.6 |
| 20260503150234 | 62 | 290 | 6.0 | 8.0 | 0.00 | 0.01 | 0.01 | 91 | 1024.3 |